Weather History for Rock Hill, SC

Change the Weather History Date:

Friday, February 8, 2013

  Actual Average Record
Temperature  
Mean Temperature 50 °F -  
Max Temperature 60 °F 53 °F 73 °F (1965)
Min Temperature 39 °F 31 °F 14 °F (1951)
Degree Days  
Heating Degree Days 16    
Moisture  
Dew Point 38 °F    
Average Humidity 74    
Maximum Humidity 97    
Minimum Humidity 46    
Precipitation  
Precipitation 0.01 in - - ()
Sea Level Pressure  
Sea Level Pressure 29.96 in    
Wind  
Wind Speed 10 mph (NNW)    
Max Wind Speed 16 mph    
Max Gust Speed 23 mph    
Visibility 10 miles    
Events Rain    
Averages and records for this station are not official NWS values.
T = Trace of Precipitation, MM = Missing Value Source: NWS Daily Summary

Daily Weather History Graph

Daily Weather History Graph

Search for Another Location

Airport:

Trip Planner

Search our weather history database for the weather conditions in past years. The results will help you decide how hot, cold, wet, or windy it might be!

Date:

Astronomy

Feb. 08, 2013 Rise Set
Actual Time 7:16 AM EST 6:00 PM EST
Civil Twilight 6:50 AM EST 6:26 PM EST
Nautical Twilight 6:20 AM EST 6:56 PM EST
Astronomical Twilight 5:51 AM EST 7:26 PM EST
Moon 5:42 AM EST (2/8) 4:33 PM EST (2/8)
Length of Visible Light 11h 35m
Length of Day
10h 43m
Waning Crescent, 3% of the Moon is Illuminated
Feb 8
Waning Crescent
Feb 10
New
Feb 17
First Quarter
Feb 25
Full
Mar 4
Last Quarter

Hourly Weather History & Observations

Time (EST) Temp. Windchill Dew Point Humidity Pressure Visibility Wind Dir Wind Speed Gust Speed Precip Events Conditions
12:02 AM 41.0 °F 33.9 °F 39.9 °F 96% 29.96 in 7.0 mi NNE 12.7 mph 20.7 mph 0.00 in Rain Light Rain
12:54 AM 41.0 °F 32.8 °F 39.0 °F 93% 29.96 in 5.0 mi NNE 16.1 mph - 0.01 in Rain Light Rain
1:54 AM 39.9 °F 32.1 °F 39.0 °F 97% 29.93 in 10.0 mi NNE 13.8 mph 21.9 mph 0.00 in   Overcast
2:54 AM 39.9 °F 33.4 °F 39.0 °F 97% 29.90 in 10.0 mi NE 10.4 mph - N/A   Overcast
3:54 AM 41.0 °F 34.7 °F 39.0 °F 93% 29.93 in 10.0 mi North 10.4 mph - N/A   Overcast
4:54 AM 39.9 °F 31.8 °F 39.0 °F 97% 29.92 in 9.0 mi North 15.0 mph - N/A   Overcast
6:54 AM 39.9 °F 32.9 °F 37.9 °F 93% 29.94 in 8.0 mi North 11.5 mph - N/A   Overcast
7:54 AM 39.9 °F 33.4 °F 37.9 °F 93% 29.95 in 8.0 mi NNE 10.4 mph - N/A   Overcast
8:54 AM 41.0 °F 36.4 °F 39.0 °F 93% 29.97 in 9.0 mi NNE 6.9 mph - N/A   Overcast
9:14 AM 42.1 °F 37.1 °F 39.0 °F 89% 29.95 in 10.0 mi North 8.1 mph - N/A   Overcast
9:38 AM 44.1 °F 40.8 °F 39.9 °F 85% 29.96 in 10.0 mi NW 5.8 mph - N/A   Mostly Cloudy
9:54 AM 43.0 °F 38.8 °F 39.0 °F 86% 29.97 in 10.0 mi NNW 6.9 mph - N/A   Overcast
10:02 AM 44.1 °F 40.1 °F 39.0 °F 82% 29.96 in 10.0 mi North 6.9 mph - N/A   Mostly Cloudy
10:16 AM 46.9 °F - 41.0 °F 80% 29.96 in 10.0 mi NNW 4.6 mph - N/A   Scattered Clouds
10:54 AM 48.9 °F - 42.1 °F 77% 29.95 in 10.0 mi Calm Calm - N/A   Clear
11:54 AM 53.1 °F - 43.0 °F 69% 29.94 in 10.0 mi West 6.9 mph - N/A   Mostly Cloudy
12:54 PM 55.9 °F - 44.1 °F 64% 29.91 in 10.0 mi West 8.1 mph - N/A   Mostly Cloudy
1:54 PM 59.0 °F - 45.0 °F 60% 29.88 in 10.0 mi West 11.5 mph 23.0 mph N/A   Scattered Clouds
2:54 PM 60.1 °F - 46.0 °F 60% 29.87 in 10.0 mi WNW 12.7 mph - N/A   Mostly Cloudy
3:54 PM 60.1 °F - 45.0 °F 57% 29.88 in 10.0 mi WNW 11.5 mph 21.9 mph N/A   Mostly Cloudy
4:54 PM 60.1 °F - 39.0 °F 46% 29.91 in 10.0 mi WNW 9.2 mph 18.4 mph N/A   Scattered Clouds
5:54 PM 55.0 °F - 36.0 °F 49% 29.94 in 10.0 mi NNW 8.1 mph - N/A   Clear
6:54 PM 52.0 °F - 34.0 °F 50% 29.98 in 10.0 mi NW 4.6 mph - N/A   Clear
7:54 PM 48.0 °F - 34.0 °F 58% 30.00 in 10.0 mi WNW 4.6 mph - N/A   Clear
8:54 PM 48.9 °F - 28.9 °F 46% 30.03 in 10.0 mi NW 3.5 mph - N/A   Clear
9:54 PM 46.0 °F 42.5 °F 30.0 °F 54% 30.07 in 10.0 mi NNW 6.9 mph - N/A   Clear
10:54 PM 45.0 °F 39.7 °F 30.0 °F 56% 30.10 in 10.0 mi NNW 10.4 mph - N/A   Clear
11:54 PM 42.1 °F 37.1 °F 28.9 °F 60% 30.11 in 10.0 mi North 8.1 mph - N/A   Clear